Regional Weather Roundup
Issued by NWS

Home | Current Version | Previous Version | Graphics & Text | Print | Product List | Glossary On
Versions: 1 2 3 4 5 6 7 8 9 10 11 12 13 14 15 16 17 18 19 20 21 22 23 24 25 26 27 28 29 30 31 32 33 34 35 36 37 38 39 40 41 42 43 44 45 46 47 48 49 50
000
ASUS43 KLOT 301809
RWRIL

ILLINOIS REGIONAL WEATHER ROUNDUP
NATIONAL WEATHER SERVICE CHICAGO/ROMEOVILLE IL
100 PM CDT SAT JUL 30 2016

NOTE: "FAIR" INDICATES FEW OR NO CLOUDS BELOW 12,000 FEET WITH NO
SIGNIFICANT WEATHER AND/OR OBSTRUCTIONS TO VISIBILITY.

* THESE STATIONS ARE NOT UNDER NWS QUALITY CONTROL. THEY ALSO MAY NOT
  REPORT WEATHER SUCH AS PRECIPITATION OR FOG.

ILZ001-002-007-009-015-016-024-301900-
NORTHWEST ILLINOIS

CITY           SKY/WX    TMP DP  RH WIND       PRES   REMARKS
MOLINE         MOSUNNY   80  67  64 CALM      29.99S HX  82
6HR MIN TEMP:  71; 6HR MAX TEMP:  80;

STERLING*      PTSUNNY   78  69  73 NE9       30.00S HX  80
SAVANNA*       PTSUNNY   79  67  65 SE6       30.00S HX  81
$$

ILZ003-004-008-010-011-017-018-301900-
NORTH CENTRAL ILLINOIS

CITY           SKY/WX    TMP DP  RH WIND       PRES   REMARKS
ROCKFORD       PTSUNNY   76  65  68 E7        30.02R
6HR MIN TEMP:  68; 6HR MAX TEMP:  77;

FREEPORT*      PTSUNNY   76  65  70 NE10      30.03S
ROCHELLE*      CLOUDY    75  67  76 NE10      30.01S
DE KALB*       CLOUDY    75  67  74 E12       30.02R
$$

ILZ005-006-012>014-019>023-301900-
NORTHEAST ILLINOIS

CITY           SKY/WX    TMP DP  RH WIND       PRES   REMARKS
CHICAGO-OHARE  CLOUDY    73  65  75 NE10      30.00S
6HR MIN TEMP:  70; 6HR MAX TEMP:  74;

CHICAGO-MIDWAY PTSUNNY   77  66  68 NE15      29.98F
6HR MIN TEMP:  71; 6HR MAX TEMP:  77;

AURORA         PTSUNNY   78  67  68 NE13      30.00R HX  80
6HR MIN TEMP:  69; 6HR MAX TEMP:  78;

LANSING*       PTSUNNY   77  67  71 N9        29.98S
JOLIET*        PTSUNNY   77  68  73 NE9       29.98S
WAUKEGAN       CLOUDY    74  66  76 NE8       30.01S
6HR MIN TEMP:  69; 6HR MAX TEMP:  74;

DUPAGE AIRPORT CLOUDY    76  65  68 NE15G21   29.99S
6HR MIN TEMP:  70; 6HR MAX TEMP:  76;

KANKAKEE*      PTSUNNY   78  69  73 NE6       29.98R HX  80
WHEELING       CLOUDY    73  65  75 NE6       30.01S
6HR MIN TEMP:  70; 6HR MAX TEMP:  75;

MORRIS*        RAIN      74  68  80 CALM      29.97R
ROMEOVILLE*    CLOUDY    74  65  73 NE10      29.99R
NORTHERLY ISL    N/A     74  65  73 NE8         N/A
$$

LMZ740>746-301900-
SOUTHERN LAKE MICHIGAN

STATION/POSITION SKY/WX   TEMP    WIND        PRES    VSBY  WAVE
                          AIR SEA DIR/SP/G                  HT/PER
                          (F)     (DEG/KT/KT) (MB)    (MI)  (FT/S)
SOUTHERN BUOY              68 73   70/  6/  8 1015.9R         2/ 5
WILMETTE HARBOR            71 71   60/  8/ 12   N/A           3/ 5
HARRISON CRIB              72      70/  9/ 10   N/A
BURNHAM HARBOR             74      40/  9/  9   N/A
BURNS HARBOR               70      60/ 10/ 13 1015.9R
MICHIGAN CITY              71      40/  3/  4   N/A
MICHIGAN CITY 6N           71 72   30/  6/  8   N/A           2/ 5
ST. JOSEPH                 71 72  320/  6/  8 1015.3R         1
$$

ILZ025>027-034>036-040-047-049-050-058-095>099-301900-
WEST-CENTRAL ILLINOIS

CITY           SKY/WX    TMP DP  RH WIND       PRES   REMARKS
QUINCY         PTSUNNY   76  66  71 W7        30.01S
GALESBURG*     SUNNY     79  67  67 CALM      30.00R HX  81
MACOMB*        PTSUNNY   77  68  74 W6        30.02R
JACKSONVILLE*  PTSUNNY   78  66  66 CALM      30.00F
PITTSFIELD*    SUNNY     78  65  64 NW5       30.03S HX  80
$$

ILZ028>032-037-038-041>044-048-051>054-059>061-301900-
CENTRAL ILLINOIS

CITY           SKY/WX    TMP DP  RH WIND       PRES   REMARKS
PONTIAC        PTSUNNY   79  70  74 CALM      29.98S HX  82
BLOOMINGTON    PTSUNNY   78  67  68 E3        29.99S HX  80
DECATUR        MOSUNNY   80  65  59 NW8       29.99S HX  82
PEORIA         PTSUNNY   81  68  64 VRB3      29.98S HX  84
6HR MIN TEMP:  71; 6HR MAX TEMP:  81;

LACON*         MOSUNNY   80  67  66 CALM      29.97S HX  82
LINCOLN*       PTSUNNY   79  69  72 CALM      29.98F HX  81
SPRINGFIELD    PTSUNNY   79  65  62 W7        30.00S HX  81
6HR MIN TEMP:  66; 6HR MAX TEMP:  80;

TAYLORVILLE    MOSUNNY   78  69  73 MISG      30.00S HX  80
6HR MIN TEMP:  65; 6HR MAX TEMP:  78;

$$

ILZ033-039-045-046-055>057-062-063-301900-
EAST-CENTRAL ILLINOIS

CITY           SKY/WX    TMP DP  RH WIND       PRES   REMARKS
CHAMPAIGN      MOSUNNY   76  68  76 W6        29.99F
MATTOON        MOSUNNY   81  65  58 W7        29.98S HX  83
PARIS*         MOSUNNY   81  69  68 W3        29.99S HX  84
$$

ILZ079-100>102-301900-
SOUTHWEST ILLINOIS

CITY           SKY/WX    TMP DP  RH WIND       PRES   REMARKS
ALTON          PTSUNNY   81  64  57 W14       30.00S HX  82
BELLEVILLE     MOSUNNY   85  70  61 W6        29.98S HX  89
CAHOKIA*       PTSUNNY   87  63  44 NW7       29.99S HX  88
SPARTA*        PTSUNNY   81  67  62 NW3       30.01S HX  84
$$

ILZ064>066-069>071-074>076-080>082-084>086-088>090-092>094-301900-
SOUTH-CENTRAL ILLINOIS

CITY           SKY/WX    TMP DP  RH WIND       PRES   REMARKS
CARBONDALE     MOSUNNY   83  69  62 VRB3      29.99F HX  86
6HR MIN TEMP:  70; 6HR MAX TEMP:  83;

CAIRO*         MOSUNNY   78  72  82 CALM      30.01F HX  81
EFFINGHAM*     PTSUNNY   80  68  66 W9        30.01S HX  83
MARION         PTSUNNY   84  70  61 S6        30.00F HX  88
MT. VERNON     PTSUNNY   82  66  57 W3        30.00S HX  85
CENTRALIA*     MOSUNNY   83  71  66 NW7       29.99S HX  87
SALEM*         MOSUNNY   82  65  55 W5        29.99F HX  84
METROPOLIS*    PTSUNNY   80  73  79 CALM      30.01F HX  84
$$

ILZ067-068-072-073-078-083-087-091-301900-
SOUTHEAST ILLINOIS

CITY           SKY/WX    TMP DP  RH WIND       PRES   REMARKS
LAWRENCEVILLE  MOSUNNY   82  69  64 W7        29.99S HX  85
FLORA*         PTSUNNY   83  69  62 NW6       29.99S HX  86
FAIRFIELD*     PTSUNNY   82  69  65 CALM      29.98F HX  85
HARRISBURG*    MOSUNNY   82  73  75 SW6       30.01S HX  86
ROBINSON*      MOSUNNY   79  68  68 NW5       29.99F HX  81
CARMI*         PTSUNNY   83  72  69 W8        29.98F HX  88
$$

ABBREVIATIONS USED IN REMARKS
   TC - TEMPERATURE IN CELSIUS
  WCI - WIND CHILL INDEX
   HX - HEAT INDEX
  VSB - VISIBILITY
$$





USA.gov is the U.S. government's official web portal to all federal, state and local government web resources and services.